Tracking 29065 objects as of 22-Jul-2024
HD Live streaming from Space Station
objects crossing your sky now

COSMOS 1275 DEB

Track COSMOS 1275 DEB now!
10-day predictions


NORAD ID: 13808
Int'l Code: 1981-053HF
Perigee: 888.3 km
Apogee: 978.4 km
Inclination: 83.0 °
Period: 103.5 minutes
Semi major axis: 7304 km
RCS: 0.015 m2 (small)
Launch date: June 4, 1981
Source: Commonwealth of Independent States (former USSR) (CIS)
Launch site: PLESETSK MISSILE AND SPACE COMPLEX (PKMTR)

Note: This is SATELLITE DEBRIS
Your satellite tracking list
Your tracking list is empty




NASA's NSSDC Master Catalog

Two Line Element Set (TLE):
1 13808U 81053HC  24204.33588270  .00003814  00000-0  29987-2 0  9998
2 13808  83.0351 142.8768 0061711 332.2192 147.9467 13.90696107 93840
Source of the keplerian elements: AFSPC